Weather History for Covington, KY

Change the Weather History Date:

Saturday, December 29, 2012

  Actual Average Record
Temperature  
Mean Temperature 29 °F 31 °F  
Max Temperature 32 °F 39 °F 69 °F (1989)
Min Temperature 25 °F 24 °F -5 °F (1880)
Degree Days  
Heating Degree Days 36 34  
Month to date heating degree days 684 891  
Since 1 July heating degree days 1790 1851  
Cooling Degree Days 0 0  
Month to date cooling degree days 0 0  
Year to date cooling degree days 1439 1121  
Moisture  
Dew Point 27 °F    
Average Humidity 84    
Maximum Humidity 100    
Minimum Humidity 68    
Precipitation  
Precipitation 0.16 in 0.11 in 1.09 in (1910)
Month to date precipitation 5.73 3.16  
Year to date precipitation 38.76 42.31  
Snow  
Snow 2.90 in 0.20 in 4.20 in (1902)
Month to date snowfall 7.4 4.4  
Since 1 July snowfall 7.4 5.2  
Snow Depth 4.00 in    
Sea Level Pressure  
Sea Level Pressure 29.89 in    
Wind  
Wind Speed 12 mph (NW)    
Max Wind Speed 25 mph    
Max Gust Speed 31 mph    
Visibility 3 miles    
Events Snow    
T = Trace of Precipitation, MM = Missing Value Source: NWS Daily Summary

Daily Weather History Graph

Daily Weather History Graph

Search for Another Location

Airport:

Trip Planner

Search our weather history database for the weather conditions in past years. The results will help you decide how hot, cold, wet, or windy it might be!

Date:

Astronomy

Dec. 29, 2012 Rise Set
Actual Time 7:57 AM EST 5:24 PM EST
Civil Twilight 7:27 AM EST 5:54 PM EST
Nautical Twilight 6:53 AM EST 6:28 PM EST
Astronomical Twilight 6:21 AM EST 7:00 PM EST
Moon 6:56 PM EST (12/29) 8:30 AM EST (12/29)
Length of Visible Light 10h 27m
Length of Day
9h 27m
Full, 98% of the Moon is Illuminated
Dec 29
Full
Jan 4
Last Quarter
Jan 11
New
Jan 18
First Quarter
Jan 26
Full

Hourly Weather History & Observations

Time (EST) Temp. Windchill Dew Point Humidity Pressure Visibility Wind Dir Wind Speed Gust Speed Precip Events Conditions
12:18 AM 32.0 °F 26.4 °F 30.2 °F 93% 29.79 in 0.5 mi ENE 5.8 mph - 0.00 in Snow Light Snow
12:52 AM 32.0 °F 25.6 °F 30.9 °F 96% 29.78 in 0.5 mi East 6.9 mph - 0.00 in Snow Light Snow
1:52 AM 32.0 °F 27.5 °F 30.9 °F 96% 29.76 in 0.5 mi East 4.6 mph - 0.01 in Snow Light Snow
2:52 AM 32.0 °F 27.5 °F 30.9 °F 96% 29.76 in 0.5 mi North 4.6 mph - 0.02 in Snow Light Snow
3:52 AM 32.0 °F 26.4 °F 30.9 °F 96% 29.74 in 0.5 mi North 5.8 mph - 0.03 in Snow Light Snow
4:52 AM 30.9 °F 22.8 °F 30.0 °F 96% 29.73 in 0.5 mi NNW 9.2 mph - 0.02 in Snow Snow
5:30 AM 30.2 °F 22.6 °F 30.2 °F 100% 29.72 in 0.5 mi NNW 8.1 mph - 0.03 in Snow Snow
5:47 AM 30.2 °F 22.6 °F 30.2 °F 100% 29.73 in 0.5 mi NNW 8.1 mph - 0.04 in Snow Snow
5:52 AM 30.0 °F 21.7 °F 30.0 °F 100% 29.75 in 0.5 mi NNW 9.2 mph - 0.05 in Snow Snow
6:10 AM 30.2 °F 21.9 °F 28.4 °F 93% 29.73 in 0.5 mi NNW 9.2 mph - 0.01 in Snow Snow
6:52 AM 30.0 °F 21.7 °F 28.0 °F 92% 29.76 in 0.8 mi NNW 9.2 mph - 0.02 in Snow Light Snow
7:46 AM 30.2 °F 20.2 °F 28.4 °F 93% 29.77 in 1.2 mi WNW 12.7 mph - 0.01 in Snow Light Snow
7:52 AM 30.0 °F 20.5 °F 28.0 °F 92% 29.79 in 1.2 mi WNW 11.5 mph - 0.01 in Snow Light Snow
8:52 AM 28.9 °F 21.1 °F 26.1 °F 89% 29.82 in 3.0 mi WNW 8.1 mph - 0.00 in   Mostly Cloudy
9:52 AM 30.0 °F 18.7 °F 26.1 °F 85% 29.86 in 4.0 mi NW 16.1 mph - N/A   Overcast
10:52 AM 30.0 °F 20.0 °F 26.1 °F 85% 29.90 in 4.0 mi WNW 12.7 mph - N/A   Overcast
11:52 AM 30.0 °F 20.0 °F 25.0 °F 82% 29.92 in 5.0 mi WNW 12.7 mph - N/A   Haze
12:52 PM 30.0 °F 20.0 °F 25.0 °F 82% 29.91 in 4.0 mi West 12.7 mph - N/A   Haze
1:52 PM 30.9 °F 21.2 °F 26.1 °F 82% 29.91 in 3.0 mi WNW 12.7 mph - N/A   Haze
2:52 PM 30.9 °F 22.2 °F 27.0 °F 85% 29.94 in 3.0 mi West 10.4 mph - N/A   Overcast
3:52 PM 32.0 °F 22.1 °F 28.0 °F 85% 29.96 in 3.0 mi West 13.8 mph - 0.00 in Snow Light Snow
4:38 PM 32.0 °F 22.1 °F 28.4 °F 87% 29.97 in 2.0 mi WNW 13.8 mph - 0.00 in Snow Light Snow
4:52 PM 30.9 °F 18.4 °F 28.0 °F 89% 30.00 in 2.0 mi WNW 20.7 mph 27.6 mph 0.00 in Snow Light Snow
5:31 PM 30.2 °F 16.2 °F 24.8 °F 80% 30.00 in 4.0 mi WNW 25.3 mph 29.9 mph 0.00 in Snow Light Snow
5:52 PM 28.9 °F 17.3 °F 23.0 °F 78% 30.04 in 5.0 mi WNW 16.1 mph 25.3 mph 0.00 in Snow Light Snow
6:52 PM 28.9 °F 17.7 °F 24.1 °F 82% 30.08 in 5.0 mi West 15.0 mph - 0.00 in Snow Light Snow
8:52 PM 27.0 °F 14.3 °F 19.9 °F 75% 30.14 in 10.0 mi West 17.3 mph - 0.00 in   Overcast
9:52 PM 26.1 °F 12.0 °F 19.9 °F 78% 30.17 in 9.0 mi West 20.7 mph 25.3 mph N/A   Overcast
10:52 PM 26.1 °F 13.6 °F 18.0 °F 71% 30.20 in 10.0 mi West 16.1 mph - N/A   Overcast
11:52 PM 26.1 °F 13.6 °F 18.0 °F 71% 30.24 in 10.0 mi West 16.1 mph 25.3 mph N/A   Overcast